Вернуться в каталог

CZ-4B R/B

АктивенSSO
NORAD 28415·ROCKET BODY·🇨🇳 China

Запущен Sep 8, 2004 с Taiyuan Satellite Launch Center

Loading…

Ближайшие Пролёты (ближайшие 24 часа)

TLE

СвежийSource: Space-Track

Эпоха: Sep 14, 2026, 12:46 UTC

1 28415U 04035C   26257.53237208  .00006141  00000-0  20002-3 0  9993
2 28415  97.3308 289.6411 0030497  20.0927 340.1507 15.31751304208792

Отслеживайте CZ-4B R/B в реальном времени с AllMySat

Download on the App Store